Location: Unspecified
(50.1700°N, 6.8600°E)
Time: 04:16:59
(UTC+00:00)

Cosmos 1726 - Pass Details

Date: 24 January 2019
Orbit: 483 x 501 km, 82.5° (Epoch: 17 April)

Event Time Altitude Azimuth Distance (km) Brightness Sun altitude
Rises 06:34:57 0° 232° (SW) 2,567 5.4 -7.0°
Reaches altitude 10° 06:37:42 10° 254° (WSW) 1,695 4.3 -6.6°
Maximum altitude 06:40:04 16° 294° (WNW) 1,368 3.7 -6.2°
Drops below altitude 10° 06:42:27 10° 334° (NNW) 1,711 4.4 -5.9°
Sets 06:45:15 0° 357° (N) 2,605 5.5 -5.5°
